Погода в Лонгфорде

Ирландия     53°43′31″N   7°47′55″W
темп.,
°C
ветер,
м/с
пор.,
м/с
влажн.,
%
обл.,
%
осадки,
мм/ч
давл.,
гПа
погр.,
м
25 февраля, чт
чт2500:00+4ююз4139260 0.0 1016463
03:00+4юз4129330 0.0 1018511
06:00+3юз4109416 0.0 1021311
09:00+4зюз310890 0.0 1024407
12:00+8з58710 0.1 10261337
15:00+8з586952 0.3 10281370
18:00+4зюз338127 0.4 102975
21:00+2ююз24930 0.0 103294
26 февраля, пт
пт2600:00+2ю359416 0.0 1032115
03:00+2ю389673 0.0 1032205
06:00+2ю389637 0.0 1032200
09:00+4ю4118924 0.0 1033365
12:00+9ююз6107612 0.0 1033872
15:00+9ю5107850 0.1 10321196
18:00+8ююз5118074 0.1 1031962
21:00+7ююз51277100 0.0 1032782
27 февраля, сб
сб2700:00+7ююз51193100 0.7 1033525
03:00+4зюз259866 0.0 1035112
06:00+3з229638 0.0 103623
09:00+5з11920 0.0 103867
12:00+9з23800 0.0 1039573
15:00+11зсз12680 0.0 1039998
18:00+6юв018414 0.0 103822
21:00+4ююв11881 0.0 103922
28 февраля, вс
вс2800:00+3ююв12928 0.0 103922
03:00+2ююв129353 0.0 103722
06:00+1ююв119442 0.0 103722
09:00+4ююв119092 0.0 103678
12:00+9ююв127557 0.0 1036438
15:00+11ююв23680 0.0 1034777
18:00+6юв12886 0.0 103322
21:00+4вюв229244 0.0 103426
1 марта, пн
пн100:00+2вюв229341 0.0 103429
03:00+1в12950 0.0 103122
06:00+1в22950 0.0 103123
09:00+3всв128951 0.0 103086
12:00+8вюв227676 0.0 1030438
15:00+9вюв347262 0.0 1028940
18:00+7в348681 0.1 1027134
21:00+5вюв3790100 0.1 1027262